Location: North Mitre
(40.7833°S, 175.4667°E)
Time: 18:04:10
(UTC+00:00)

YAOGAN 11 - Pass Details

Date: 04 August 2024
Orbit: 604 x 656 km, 98.4° (Epoch: 18 September)

Event Time Altitude Azimuth Distance (km) Brightness Sun altitude
Rises 18:17:36 0° 166° (SSE) 2,909 7.5 -12.2°
Reaches altitude 10° 18:19:48 10° 165° (SSE) 2,001 6.7 -11.8°
Maximum altitude 18:24:09 83° 78° (ENE) 636 4.2 -11.0°
Drops below altitude 10° 18:28:31 10° 348° (NNW) 1,999 6.7 -10.2°
Sets 18:30:42 0° 347° (NNW) 2,906 7.5 -9.8°
